TimeEST,TemperatureF,Dew PointF,Humidity,Sea Level PressureIn,VisibilityMPH,Wind Direction,Wind SpeedMPH,Gust SpeedMPH,PrecipitationIn,Events,Conditions,WindDirDegrees,DateUTC
12:56 AM,28.9,19.0,67,30.31,10.0,Calm,Calm,-,N/A,,Clear,0,2012-11-30 05:56:00
1:56 AM,28.9,18.0,64,30.30,10.0,Calm,Calm,-,N/A,,Clear,0,2012-11-30 06:56:00
2:56 AM,28.9,19.0,67,30.30,10.0,Calm,Calm,-,N/A,,Scattered Clouds,0,2012-11-30 07:56:00
3:56 AM,27.0,19.9,75,30.29,10.0,Calm,Calm,-,N/A,,Overcast,0,2012-11-30 08:56:00
4:56 AM,28.0,21.0,75,30.30,10.0,Calm,Calm,-,N/A,,Overcast,0,2012-11-30 09:56:00
5:56 AM,28.9,19.9,69,30.31,10.0,East,3.5,-,N/A,,Overcast,90,2012-11-30 10:56:00
6:56 AM,30.0,21.9,72,30.32,10.0,East,3.5,-,N/A,,Overcast,80,2012-11-30 11:56:00
7:56 AM,30.0,21.0,69,30.32,10.0,East,4.6,-,N/A,,Overcast,100,2012-11-30 12:56:00
8:56 AM,33.1,21.9,64,30.31,10.0,ESE,4.6,-,N/A,,Mostly Cloudy,110,2012-11-30 13:56:00
9:56 AM,35.1,23.0,61,30.32,10.0,ESE,5.8,-,N/A,,Clear,120,2012-11-30 14:56:00
10:56 AM,39.9,23.0,51,30.32,10.0,ESE,5.8,-,N/A,,Clear,110,2012-11-30 15:56:00
11:56 AM,42.1,21.9,45,30.30,10.0,SE,6.9,-,N/A,,Clear,140,2012-11-30 16:56:00
12:56 PM,44.1,23.0,43,30.25,10.0,Variable,5.8,-,N/A,,Clear,0,2012-11-30 17:56:00
1:56 PM,44.1,24.1,45,30.24,10.0,SSE,4.6,-,N/A,,Clear,150,2012-11-30 18:56:00
2:56 PM,46.0,25.0,44,30.24,10.0,SSE,3.5,-,N/A,,Mostly Cloudy,150,2012-11-30 19:56:00
3:56 PM,45.0,26.1,48,30.25,10.0,ESE,3.5,-,N/A,,Overcast,110,2012-11-30 20:56:00
4:56 PM,43.0,25.0,49,30.25,10.0,SE,5.8,-,N/A,,Mostly Cloudy,130,2012-11-30 21:56:00
5:56 PM,41.0,24.1,51,30.27,10.0,SE,5.8,-,N/A,,Overcast,140,2012-11-30 22:56:00
6:56 PM,41.0,23.0,49,30.23,10.0,ESE,9.2,-,N/A,,Overcast,120,2012-11-30 23:56:00
7:56 PM,41.0,23.0,49,30.27,10.0,SE,3.5,-,N/A,,Overcast,140,2012-12-01 00:56:00
8:56 PM,39.0,24.1,55,30.27,10.0,ESE,6.9,-,N/A,,Mostly Cloudy,110,2012-12-01 01:56:00
10:56 PM,39.0,24.1,55,30.28,10.0,ESE,5.8,-,N/A,,Overcast,110,2012-12-01 03:56:00
11:56 PM,37.9,24.1,57,30.28,10.0,ESE,9.2,-,N/A,,Mostly Cloudy,120,2012-12-01 04:56:00